Back to catalog

STARLINK-6106

AliveCommunicationsVLEO
NORAD 57154·PAYLOAD·🇺🇸 United States

Launched Jun 23, 2023 from Cape Canaveral Space Force Station

Loading…

Next Passes (next 24 hours)

TLE

FreshSource: CelesTrak SupGP

Epoch: Sep 14, 2026, 22:19 UTC

1 57154C 23090BF  26257.93034722  .00029393  00000+0  10647-2 0  2570
2 57154  42.9994 274.8000 0001466 263.9908  72.5519 15.27562235    14

Track STARLINK-6106 in real time with AllMySat

Download on the App Store